Time,TemperatureF,DewpointF,PressureIn,WindDirection,WindDirectionDegrees,WindSpeedMPH,WindSpeedGustMPH,Humidity,HourlyPrecipIn,Conditions,Clouds,dailyrainin,SolarRadiationWatts/m^2,SoftwareType,DateUTC
2013-05-04 00:01:00,63.1,41.5,29.99,South,169,1.0,8.0,45,0.00,,,0.00,0.0,meteohub,2013-05-04 04:01:00,
2013-05-04 00:02:00,63.1,41.5,29.99,ENE,57,5.0,8.0,45,0.00,,,0.00,0.0,meteohub,2013-05-04 04:02:00,
2013-05-04 00:04:00,63.1,42.1,29.99,East,82,2.0,8.0,46,0.00,,,0.00,0.0,meteohub,2013-05-04 04:04:00,
2013-05-04 00:09:00,63.0,41.9,29.99,ESE,111,5.0,8.0,46,0.00,,,0.00,0.0,meteohub,2013-05-04 04:09:00,
2013-05-04 00:14:00,62.8,41.7,29.99,ESE,117,5.0,8.0,46,0.00,,,0.00,0.0,meteohub,2013-05-04 04:14:00,
2013-05-04 00:19:00,62.4,41.4,29.99,SSE,148,4.0,8.0,46,0.00,,,0.00,0.0,meteohub,2013-05-04 04:19:00,
2013-05-04 00:24:00,62.2,41.7,29.99,SSE,163,0.0,7.0,47,0.00,,,0.00,0.0,meteohub,2013-05-04 04:24:00,
2013-05-04 00:29:00,62.1,42.1,29.99,East,92,5.0,7.0,48,0.00,,,0.00,0.0,meteohub,2013-05-04 04:29:00,
2013-05-04 00:35:00,61.9,41.9,29.99,SE,125,6.0,6.0,48,0.00,,,0.00,0.0,meteohub,2013-05-04 04:35:00,
2013-05-04 00:40:00,61.5,41.7,29.99,ESE,104,0.0,6.0,48,0.00,,,0.00,0.0,meteohub,2013-05-04 04:40:00,
2013-05-04 00:45:00,61.3,41.0,29.99,SE,146,0.0,8.0,47,0.00,,,0.00,0.0,meteohub,2013-05-04 04:45:00,
2013-05-04 00:50:00,61.3,41.0,29.99,ESE,112,2.0,8.0,47,0.00,,,0.00,0.0,meteohub,2013-05-04 04:50:00,
2013-05-04 00:55:00,61.2,41.4,29.99,SE,131,3.0,6.0,48,0.00,,,0.00,0.0,meteohub,2013-05-04 04:55:00,
2013-05-04 01:00:00,61.2,41.4,29.99,South,178,1.0,4.0,48,0.00,,,0.00,0.0,meteohub,2013-05-04 05:00:00,
2013-05-04 01:05:00,61.2,41.4,29.99,SE,127,2.0,4.0,48,0.00,,,0.00,0.0,meteohub,2013-05-04 05:05:00,
2013-05-04 01:10:00,61.0,41.2,29.99,South,173,3.0,5.0,48,0.00,,,0.00,0.0,meteohub,2013-05-04 05:10:00,
2013-05-04 01:15:00,61.0,41.2,29.99,East,100,1.0,5.0,48,0.00,,,0.00,0.0,meteohub,2013-05-04 05:15:00,
2013-05-04 01:20:00,61.0,40.6,29.99,ENE,71,4.0,5.0,47,0.00,,,0.00,0.0,meteohub,2013-05-04 05:20:00,
2013-05-04 01:25:00,61.0,40.6,29.99,ESE,109,2.0,4.0,47,0.00,,,0.00,0.0,meteohub,2013-05-04 05:25:00,
2013-05-04 01:31:00,61.0,40.6,29.99,ESE,120,1.0,4.0,47,0.00,,,0.00,0.0,meteohub,2013-05-04 05:31:00,
2013-05-04 01:36:00,60.8,41.0,29.99,ESE,112,0.0,4.0,48,0.00,,,0.00,0.0,meteohub,2013-05-04 05:36:00,
2013-05-04 01:41:00,60.6,40.8,29.99,SE,140,1.0,4.0,48,0.00,,,0.00,0.0,meteohub,2013-05-04 05:41:00,
2013-05-04 01:46:00,60.6,41.4,29.99,SE,125,1.0,4.0,49,0.00,,,0.00,0.0,meteohub,2013-05-04 05:46:00,
2013-05-04 01:51:00,60.4,41.2,29.99,SE,131,2.0,4.0,49,0.00,,,0.00,0.0,meteohub,2013-05-04 05:51:00,
2013-05-04 01:56:00,60.3,41.0,29.99,SE,134,0.0,4.0,49,0.00,,,0.00,0.0,meteohub,2013-05-04 05:56:00,
2013-05-04 02:02:00,60.3,42.1,29.99,ENE,75,2.0,5.0,51,0.00,,,0.00,0.0,meteohub,2013-05-04 06:02:00,
2013-05-04 02:07:00,60.3,42.1,29.99,East,100,2.0,6.0,51,0.00,,,0.00,0.0,meteohub,2013-05-04 06:07:00,
2013-05-04 02:12:00,60.1,41.9,29.99,ESE,105,8.0,8.0,51,0.00,,,0.00,0.0,meteohub,2013-05-04 06:12:00,
2013-05-04 02:17:00,60.1,42.4,29.99,East,90,1.0,8.0,52,0.00,,,0.00,0.0,meteohub,2013-05-04 06:17:00,
2013-05-04 02:22:00,60.1,42.4,29.99,ESE,108,3.0,8.0,52,0.00,,,0.00,0.0,meteohub,2013-05-04 06:22:00,
2013-05-04 02:27:00,60.1,43.0,29.99,ENE,66,0.0,8.0,53,0.00,,,0.00,0.0,meteohub,2013-05-04 06:27:00,
2013-05-04 02:32:00,59.9,42.8,29.99,SE,145,4.0,7.0,53,0.00,,,0.00,0.0,meteohub,2013-05-04 06:32:00,
2013-05-04 02:37:00,59.9,43.2,29.99,NE,47,1.0,8.0,54,0.00,,,0.00,0.0,meteohub,2013-05-04 06:37:00,
2013-05-04 02:42:00,59.7,43.0,29.99,ESE,107,2.0,8.0,54,0.00,,,0.00,0.0,meteohub,2013-05-04 06:42:00,
2013-05-04 02:47:00,59.5,43.3,29.99,ESE,116,2.0,8.0,55,0.00,,,0.00,0.0,meteohub,2013-05-04 06:47:00,
2013-05-04 02:52:00,59.4,43.7,29.98,East,100,1.0,5.0,56,0.00,,,0.00,0.0,meteohub,2013-05-04 06:52:00,
2013-05-04 02:57:00,59.2,43.5,29.98,ESE,112,1.0,5.0,56,0.00,,,0.00,0.0,meteohub,2013-05-04 06:57:00,
2013-05-04 03:02:00,59.0,43.7,29.99,ENE,65,0.0,5.0,57,0.00,,,0.00,0.0,meteohub,2013-05-04 07:02:00,
2013-05-04 03:07:00,58.8,43.7,29.99,ESE,123,2.0,4.0,57,0.00,,,0.00,0.0,meteohub,2013-05-04 07:07:00,
2013-05-04 03:12:00,58.8,44.1,29.99,East,101,0.0,4.0,58,0.00,,,0.00,0.0,meteohub,2013-05-04 07:12:00,
2013-05-04 03:17:00,58.6,44.4,29.99,SE,125,1.0,4.0,59,0.00,,,0.00,0.0,meteohub,2013-05-04 07:17:00,
2013-05-04 03:22:00,58.5,44.6,29.99,ESE,113,1.0,5.0,60,0.00,,,0.00,0.0,meteohub,2013-05-04 07:22:00,
2013-05-04 03:27:00,58.5,45.1,29.99,ESE,114,5.0,5.0,61,0.00,,,0.00,0.0,meteohub,2013-05-04 07:27:00,
2013-05-04 03:32:00,58.3,45.0,29.99,SE,146,0.0,6.0,61,0.00,,,0.00,0.0,meteohub,2013-05-04 07:32:00,
2013-05-04 03:37:00,58.3,45.3,29.99,SSE,151,0.0,6.0,62,0.00,,,0.00,0.0,meteohub,2013-05-04 07:37:00,
2013-05-04 03:42:00,58.3,45.3,29.99,SE,138,2.0,6.0,62,0.00,,,0.00,0.0,meteohub,2013-05-04 07:42:00,
2013-05-04 03:47:00,58.5,45.5,29.99,ENE,63,1.0,6.0,62,0.00,,,0.00,0.0,meteohub,2013-05-04 07:47:00,
2013-05-04 03:52:00,58.5,45.5,29.99,SE,127,3.0,6.0,62,0.00,,,0.00,0.0,meteohub,2013-05-04 07:52:00,
2013-05-04 03:57:00,58.6,45.7,29.99,East,96,3.0,6.0,62,0.00,,,0.00,0.0,meteohub,2013-05-04 07:57:00,
2013-05-04 04:02:00,58.6,45.7,29.98,ESE,110,3.0,6.0,62,0.00,,,0.00,0.0,meteohub,2013-05-04 08:02:00,
2013-05-04 04:07:00,58.6,45.7,29.98,ESE,123,2.0,8.0,62,0.00,,,0.00,0.0,meteohub,2013-05-04 08:07:00,
2013-05-04 04:13:00,58.6,45.7,29.98,ESE,113,5.0,8.0,62,0.00,,,0.00,0.0,meteohub,2013-05-04 08:13:00,
2013-05-04 04:18:00,58.6,45.7,29.98,ENE,76,1.0,9.0,62,0.00,,,0.00,0.0,meteohub,2013-05-04 08:18:00,
2013-05-04 04:23:00,58.6,46.0,29.98,ESE,117,2.0,9.0,63,0.00,,,0.00,0.0,meteohub,2013-05-04 08:23:00,
2013-05-04 04:28:00,58.3,46.2,29.98,ENE,66,1.0,7.0,64,0.00,,,0.00,0.0,meteohub,2013-05-04 08:28:00,
2013-05-04 04:33:00,58.1,46.0,29.98,ESE,117,5.0,6.0,64,0.00,,,0.00,0.0,meteohub,2013-05-04 08:33:00,
2013-05-04 04:38:00,57.9,45.9,29.98,ESE,122,4.0,6.0,64,0.00,,,0.00,0.0,meteohub,2013-05-04 08:38:00,
2013-05-04 04:43:00,57.9,45.9,29.98,ESE,105,1.0,7.0,64,0.00,,,0.00,0.0,meteohub,2013-05-04 08:43:00,
2013-05-04 04:48:00,57.7,45.7,29.98,ESE,106,2.0,7.0,64,0.00,,,0.00,0.0,meteohub,2013-05-04 08:48:00,
2013-05-04 04:53:00,57.7,45.7,29.98,SE,143,5.0,9.0,64,0.00,,,0.00,0.0,meteohub,2013-05-04 08:53:00,
2013-05-04 04:58:00,57.7,45.7,29.98,North,11,1.0,9.0,64,0.00,,,0.00,0.0,meteohub,2013-05-04 08:58:00,
2013-05-04 05:04:00,57.7,45.3,29.98,ENE,57,0.0,9.0,63,0.00,,,0.00,0.0,meteohub,2013-05-04 09:04:00,
2013-05-04 05:09:00,57.7,45.3,29.98,SE,142,3.0,7.0,63,0.00,,,0.00,0.0,meteohub,2013-05-04 09:09:00,
2013-05-04 05:14:00,57.7,45.3,29.98,ESE,109,2.0,9.0,63,0.00,,,0.00,0.0,meteohub,2013-05-04 09:14:00,
2013-05-04 05:19:00,57.9,45.3,29.98,ESE,114,1.0,9.0,63,0.00,,,0.00,0.0,meteohub,2013-05-04 09:19:00,
2013-05-04 05:24:00,57.9,45.3,29.97,ESE,104,7.0,9.0,63,0.00,,,0.00,0.0,meteohub,2013-05-04 09:24:00,
2013-05-04 05:29:00,57.9,45.3,29.97,SE,128,5.0,10.0,63,0.00,,,0.00,0.0,meteohub,2013-05-04 09:29:00,
2013-05-04 05:34:00,57.9,45.3,29.97,SE,126,2.0,10.0,63,0.00,,,0.00,0.0,meteohub,2013-05-04 09:34:00,
2013-05-04 05:39:00,57.9,45.3,29.97,SE,125,8.0,10.0,63,0.00,,,0.00,0.0,meteohub,2013-05-04 09:39:00,
2013-05-04 05:44:00,57.9,45.9,29.97,East,87,2.0,10.0,64,0.00,,,0.00,0.0,meteohub,2013-05-04 09:44:00,
2013-05-04 05:49:00,57.9,45.9,29.97,ESE,117,2.0,10.0,64,0.00,,,0.00,0.0,meteohub,2013-05-04 09:49:00,
2013-05-04 05:54:00,57.7,45.7,29.97,ESE,108,5.0,9.0,64,0.00,,,0.00,0.0,meteohub,2013-05-04 09:54:00,
2013-05-04 06:00:00,57.6,45.9,29.97,ESE,110,2.0,9.0,65,0.00,,,0.00,0.0,meteohub,2013-05-04 10:00:00,
2013-05-04 06:05:00,57.4,45.7,29.97,SE,144,6.0,10.0,65,0.00,,,0.00,0.0,meteohub,2013-05-04 10:05:00,
2013-05-04 06:10:00,57.0,45.9,29.98,SE,146,1.0,10.0,66,0.00,,,0.00,0.0,meteohub,2013-05-04 10:10:00,
2013-05-04 06:15:00,56.8,46.0,29.98,SE,140,3.0,7.0,67,0.00,,,0.00,0.0,meteohub,2013-05-04 10:15:00,
2013-05-04 06:20:00,56.7,46.2,29.98,ESE,122,1.0,8.0,68,0.00,,,0.00,0.0,meteohub,2013-05-04 10:20:00,
2013-05-04 06:25:00,56.5,46.0,29.98,East,79,6.0,8.0,68,0.00,,,0.00,0.0,meteohub,2013-05-04 10:25:00,
2013-05-04 06:30:00,56.5,46.0,29.98,SE,125,6.0,8.0,68,0.00,,,0.00,0.0,meteohub,2013-05-04 10:30:00,
2013-05-04 06:35:00,56.1,45.7,29.98,ENE,65,3.0,12.0,68,0.00,,,0.00,0.0,meteohub,2013-05-04 10:35:00,
2013-05-04 06:40:00,56.1,45.7,29.98,East,84,3.0,12.0,68,0.00,,,0.00,0.0,meteohub,2013-05-04 10:40:00,
2013-05-04 06:45:00,55.9,45.9,29.98,NE,56,3.0,8.0,69,0.00,,,0.00,5.0,meteohub,2013-05-04 10:45:00,
2013-05-04 06:50:00,55.8,45.7,29.98,East,82,2.0,8.0,69,0.00,,,0.00,7.0,meteohub,2013-05-04 10:50:00,
2013-05-04 06:56:00,55.8,45.7,29.98,NE,56,1.0,8.0,69,0.00,,,0.00,9.0,meteohub,2013-05-04 10:56:00,
2013-05-04 07:01:00,55.8,45.7,29.98,ESE,115,6.0,8.0,69,0.00,,,0.00,11.0,meteohub,2013-05-04 11:01:00,
2013-05-04 07:06:00,55.6,45.5,29.98,SE,137,4.0,10.0,69,0.00,,,0.00,14.0,meteohub,2013-05-04 11:06:00,
2013-05-04 07:11:00,55.6,45.5,29.98,SE,145,8.0,10.0,69,0.00,,,0.00,16.0,meteohub,2013-05-04 11:11:00,
2013-05-04 07:16:00,55.6,46.0,29.99,East,84,3.0,9.0,70,0.00,,,0.00,18.0,meteohub,2013-05-04 11:16:00,
2013-05-04 07:21:00,55.6,46.0,29.99,ESE,107,5.0,9.0,70,0.00,,,0.00,21.0,meteohub,2013-05-04 11:21:00,
2013-05-04 07:26:00,55.6,46.0,29.99,ESE,111,3.0,9.0,70,0.00,,,0.00,26.0,meteohub,2013-05-04 11:26:00,
2013-05-04 07:31:00,55.8,46.0,29.98,ESE,118,6.0,9.0,70,0.00,,,0.00,30.0,meteohub,2013-05-04 11:31:00,
2013-05-04 07:36:00,55.8,46.0,29.98,ESE,103,2.0,10.0,70,0.00,,,0.00,39.0,meteohub,2013-05-04 11:36:00,
2013-05-04 07:41:00,55.9,45.9,29.99,ENE,74,2.0,10.0,69,0.00,,,0.00,37.0,meteohub,2013-05-04 11:41:00,
2013-05-04 07:47:00,56.1,46.0,29.99,NE,42,4.0,12.0,69,0.00,,,0.00,125.0,meteohub,2013-05-04 11:47:00,
2013-05-04 07:52:00,56.7,45.9,29.99,ENE,57,6.0,12.0,67,0.00,,,0.00,153.0,meteohub,2013-05-04 11:52:00,
2013-05-04 07:57:00,57.4,46.6,29.98,ENE,68,3.0,12.0,67,0.00,,,0.00,174.0,meteohub,2013-05-04 11:57:00,
2013-05-04 08:02:00,57.9,46.2,29.98,ENE,69,3.0,11.0,65,0.00,,,0.00,193.0,meteohub,2013-05-04 12:02:00,
2013-05-04 08:09:00,58.3,46.2,29.98,NW,323,5.0,13.0,64,0.00,,,0.00,214.0,meteohub,2013-05-04 12:09:00,
2013-05-04 08:14:00,58.8,45.9,29.98,SE,126,5.0,15.0,62,0.00,,,0.00,237.0,meteohub,2013-05-04 12:14:00,
2013-05-04 08:19:00,59.4,46.4,29.98,East,93,8.0,15.0,62,0.00,,,0.00,255.0,meteohub,2013-05-04 12:19:00,
2013-05-04 08:25:00,59.5,45.7,29.98,SSE,152,2.0,12.0,60,0.00,,,0.00,278.0,meteohub,2013-05-04 12:25:00,
2013-05-04 08:31:00,59.9,45.1,29.98,South,179,7.0,17.0,58,0.00,,,0.00,271.0,meteohub,2013-05-04 12:31:00,
2013-05-04 08:36:00,60.3,45.5,29.98,SSE,151,12.0,17.0,58,0.00,,,0.00,338.0,meteohub,2013-05-04 12:36:00,
2013-05-04 08:41:00,60.3,44.1,29.98,ENE,74,11.0,17.0,55,0.00,,,0.00,141.0,meteohub,2013-05-04 12:41:00,
2013-05-04 08:46:00,60.4,43.7,29.98,SSE,162,11.0,17.0,54,0.00,,,0.00,420.0,meteohub,2013-05-04 12:46:00,
2013-05-04 08:51:00,61.2,43.9,29.98,ESE,111,9.0,15.0,53,0.00,,,0.00,492.0,meteohub,2013-05-04 12:51:00,
2013-05-04 08:56:00,61.9,43.0,29.98,SE,130,5.0,18.0,50,0.00,,,0.00,471.0,meteohub,2013-05-04 12:56:00,
2013-05-04 09:02:00,61.7,42.8,29.98,ESE,102,7.0,18.0,50,0.00,,,0.00,218.0,meteohub,2013-05-04 13:02:00,
2013-05-04 09:07:00,61.3,43.0,29.98,ESE,106,13.0,18.0,51,0.00,,,0.00,605.0,meteohub,2013-05-04 13:07:00,
2013-05-04 09:12:00,61.9,44.1,29.98,SE,128,4.0,16.0,52,0.00,,,0.00,327.0,meteohub,2013-05-04 13:12:00,
2013-05-04 09:17:00,61.5,42.6,29.98,ESE,115,6.0,18.0,50,0.00,,,0.00,227.0,meteohub,2013-05-04 13:17:00,
2013-05-04 09:22:00,60.6,41.9,29.98,South,183,5.0,18.0,50,0.00,,,0.00,178.0,meteohub,2013-05-04 13:22:00,
2013-05-04 09:27:00,60.3,43.0,29.98,SSE,166,8.0,18.0,53,0.00,,,0.00,156.0,meteohub,2013-05-04 13:27:00,
2013-05-04 09:32:00,60.1,41.9,29.98,SE,143,13.0,15.0,51,0.00,,,0.00,160.0,meteohub,2013-05-04 13:32:00,
2013-05-04 09:37:00,60.1,41.9,29.98,ESE,117,2.0,15.0,51,0.00,,,0.00,174.0,meteohub,2013-05-04 13:37:00,
2013-05-04 09:42:00,60.1,41.4,29.98,ESE,123,3.0,13.0,50,0.00,,,0.00,260.0,meteohub,2013-05-04 13:42:00,
2013-05-04 09:47:00,61.0,42.3,29.98,East,96,5.0,13.0,50,0.00,,,0.00,765.0,meteohub,2013-05-04 13:47:00,
2013-05-04 09:52:00,62.2,41.7,29.97,SSE,161,3.0,12.0,47,0.00,,,0.00,309.0,meteohub,2013-05-04 13:52:00,
2013-05-04 09:57:00,62.1,40.5,29.98,SE,131,1.0,14.0,45,0.00,,,0.00,390.0,meteohub,2013-05-04 13:57:00,
2013-05-04 10:02:00,62.2,41.7,29.98,SE,144,4.0,14.0,47,0.00,,,0.00,383.0,meteohub,2013-05-04 14:02:00,
2013-05-04 10:08:00,62.4,41.4,29.98,NE,38,5.0,15.0,46,0.00,,,0.00,357.0,meteohub,2013-05-04 14:08:00,
2013-05-04 10:13:00,62.4,40.8,29.98,WNW,292,5.0,15.0,45,0.00,,,0.00,345.0,meteohub,2013-05-04 14:13:00,
2013-05-04 10:18:00,62.8,40.5,29.98,SE,140,9.0,15.0,44,0.00,,,0.00,659.0,meteohub,2013-05-04 14:18:00,
2013-05-04 10:23:00,63.5,40.6,29.98,SE,130,9.0,13.0,43,0.00,,,0.00,520.0,meteohub,2013-05-04 14:23:00,
2013-05-04 10:28:00,63.7,40.8,29.98,ENE,63,4.0,13.0,43,0.00,,,0.00,352.0,meteohub,2013-05-04 14:28:00,
2013-05-04 10:34:00,63.3,40.5,29.98,SE,131,7.0,14.0,43,0.00,,,0.00,329.0,meteohub,2013-05-04 14:34:00,
2013-05-04 10:39:00,63.3,39.9,29.98,SE,128,5.0,14.0,42,0.00,,,0.00,397.0,meteohub,2013-05-04 14:39:00,
2013-05-04 10:44:00,63.5,41.7,29.98,SSE,165,1.0,14.0,45,0.00,,,0.00,401.0,meteohub,2013-05-04 14:44:00,
2013-05-04 10:49:00,63.9,41.0,29.98,SE,129,5.0,12.0,43,0.00,,,0.00,401.0,meteohub,2013-05-04 14:49:00,
2013-05-04 10:54:00,64.2,40.1,29.98,SE,136,6.0,11.0,41,0.00,,,0.00,499.0,meteohub,2013-05-04 14:54:00,
2013-05-04 10:59:00,64.8,39.9,29.98,SE,134,8.0,10.0,40,0.00,,,0.00,441.0,meteohub,2013-05-04 14:59:00,
2013-05-04 11:04:00,64.8,41.2,29.98,SE,136,5.0,12.0,42,0.00,,,0.00,341.0,meteohub,2013-05-04 15:04:00,
2013-05-04 11:10:00,64.2,41.2,29.98,East,91,2.0,12.0,43,0.00,,,0.00,323.0,meteohub,2013-05-04 15:10:00,
2013-05-04 11:15:00,64.0,40.5,29.98,SE,140,8.0,12.0,42,0.00,,,0.00,345.0,meteohub,2013-05-04 15:15:00,
2013-05-04 11:20:00,63.9,40.3,29.98,ESE,105,2.0,12.0,42,0.00,,,0.00,338.0,meteohub,2013-05-04 15:20:00,
2013-05-04 11:26:00,64.0,40.5,29.98,SE,137,3.0,12.0,42,0.00,,,0.00,380.0,meteohub,2013-05-04 15:26:00,
2013-05-04 11:31:00,64.8,41.7,29.98,ESE,113,5.0,11.0,43,0.00,,,0.00,512.0,meteohub,2013-05-04 15:31:00,
2013-05-04 11:37:00,65.1,39.6,29.97,ESE,117,2.0,9.0,39,0.00,,,0.00,476.0,meteohub,2013-05-04 15:37:00,
2013-05-04 11:42:00,64.9,41.4,29.97,ENE,61,1.0,11.0,42,0.00,,,0.00,438.0,meteohub,2013-05-04 15:42:00,
2013-05-04 11:47:00,64.9,39.4,29.97,SSE,155,4.0,11.0,39,0.00,,,0.00,591.0,meteohub,2013-05-04 15:47:00,
2013-05-04 11:52:00,65.7,40.6,29.97,ESE,119,5.0,11.0,40,0.00,,,0.00,577.0,meteohub,2013-05-04 15:52:00,
2013-05-04 11:57:00,65.8,40.8,29.97,SE,137,6.0,11.0,40,0.00,,,0.00,789.0,meteohub,2013-05-04 15:57:00,
2013-05-04 12:02:00,66.6,42.8,29.97,SE,125,4.0,11.0,42,0.00,,,0.00,589.0,meteohub,2013-05-04 16:02:00,
2013-05-04 12:08:00,66.4,39.9,29.97,NE,52,5.0,11.0,38,0.00,,,0.00,628.0,meteohub,2013-05-04 16:08:00,
2013-05-04 12:13:00,66.7,40.3,29.97,SE,126,7.0,12.0,38,0.00,,,0.00,782.0,meteohub,2013-05-04 16:13:00,
2013-05-04 12:18:00,66.9,39.7,29.97,SE,128,3.0,12.0,37,0.00,,,0.00,868.0,meteohub,2013-05-04 16:18:00,
2013-05-04 12:23:00,68.2,42.3,29.96,SSE,153,6.0,12.0,39,0.00,,,0.00,1178.0,meteohub,2013-05-04 16:23:00,
2013-05-04 12:28:00,68.0,42.8,29.96,SSE,167,5.0,12.0,40,0.00,,,0.00,520.0,meteohub,2013-05-04 16:28:00,
2013-05-04 12:33:00,68.0,43.3,29.96,South,180,5.0,12.0,41,0.00,,,0.00,775.0,meteohub,2013-05-04 16:33:00,
2013-05-04 12:39:00,67.8,41.4,29.96,ESE,108,3.0,12.0,38,0.00,,,0.00,457.0,meteohub,2013-05-04 16:39:00,
2013-05-04 12:44:00,67.6,41.2,29.96,SE,134,9.0,12.0,38,0.00,,,0.00,457.0,meteohub,2013-05-04 16:44:00,
2013-05-04 12:49:00,67.6,42.4,29.96,SW,225,3.0,12.0,40,0.00,,,0.00,963.0,meteohub,2013-05-04 16:49:00,
2013-05-04 12:54:00,68.7,43.3,29.96,SE,127,7.0,14.0,40,0.00,,,0.00,976.0,meteohub,2013-05-04 16:54:00,
2013-05-04 12:59:00,69.4,43.3,29.96,ESE,117,5.0,14.0,39,0.00,,,0.00,911.0,meteohub,2013-05-04 16:59:00,
2013-05-04 13:04:00,69.4,44.1,29.96,NNE,25,2.0,14.0,40,0.00,,,0.00,742.0,meteohub,2013-05-04 17:04:00,
2013-05-04 13:09:00,69.3,42.6,29.96,SSE,147,6.0,11.0,38,0.00,,,0.00,918.0,meteohub,2013-05-04 17:09:00,
2013-05-04 13:14:00,68.5,44.6,29.96,East,96,4.0,13.0,42,0.00,,,0.00,589.0,meteohub,2013-05-04 17:14:00,
2013-05-04 13:19:00,68.2,41.0,29.96,SSE,150,5.0,13.0,37,0.00,,,0.00,824.0,meteohub,2013-05-04 17:19:00,
2013-05-04 13:24:00,68.2,43.0,29.96,SSE,154,4.0,13.0,40,0.00,,,0.00,633.0,meteohub,2013-05-04 17:24:00,
2013-05-04 13:30:00,68.5,43.3,29.96,SE,137,3.0,12.0,40,0.00,,,0.00,737.0,meteohub,2013-05-04 17:30:00,
2013-05-04 13:35:00,68.7,43.3,29.96,SSE,151,6.0,11.0,40,0.00,,,0.00,708.0,meteohub,2013-05-04 17:35:00,
2013-05-04 13:40:00,69.3,44.6,29.95,SE,129,5.0,10.0,41,0.00,,,0.00,541.0,meteohub,2013-05-04 17:40:00,
2013-05-04 13:45:00,69.3,43.2,29.95,SSE,167,9.0,12.0,39,0.00,,,0.00,912.0,meteohub,2013-05-04 17:45:00,
2013-05-04 13:50:00,69.1,44.4,29.95,SE,146,8.0,12.0,41,0.00,,,0.00,831.0,meteohub,2013-05-04 17:50:00,
2013-05-04 13:55:00,69.3,43.9,29.95,SSE,157,5.0,12.0,40,0.00,,,0.00,1109.0,meteohub,2013-05-04 17:55:00,
2013-05-04 14:00:00,68.9,43.0,29.94,SE,136,2.0,12.0,39,0.00,,,0.00,482.0,meteohub,2013-05-04 18:00:00,
2013-05-04 14:05:00,69.6,47.8,29.94,SE,129,6.0,11.0,46,0.00,,,0.00,888.0,meteohub,2013-05-04 18:05:00,
2013-05-04 14:10:00,69.6,45.5,29.94,SSE,158,1.0,11.0,42,0.00,,,0.00,888.0,meteohub,2013-05-04 18:10:00,
2013-05-04 14:16:00,70.2,45.3,29.94,ESE,113,11.0,11.0,41,0.00,,,0.00,1092.0,meteohub,2013-05-04 18:16:00,
2013-05-04 14:21:00,70.3,48.0,29.94,SSE,151,8.0,14.0,45,0.00,,,0.00,949.0,meteohub,2013-05-04 18:21:00,
2013-05-04 14:26:00,71.1,47.5,29.94,South,188,7.0,14.0,43,0.00,,,0.00,905.0,meteohub,2013-05-04 18:26:00,
2013-05-04 14:31:00,70.5,48.2,29.94,ESE,107,10.0,12.0,45,0.00,,,0.00,911.0,meteohub,2013-05-04 18:31:00,
2013-05-04 14:36:00,70.7,46.4,29.94,SSE,154,2.0,11.0,42,0.00,,,0.00,589.0,meteohub,2013-05-04 18:36:00,
2013-05-04 14:41:00,70.2,45.3,29.94,SE,145,4.0,11.0,41,0.00,,,0.00,661.0,meteohub,2013-05-04 18:41:00,
2013-05-04 14:46:00,70.5,47.5,29.94,South,173,4.0,11.0,44,0.00,,,0.00,881.0,meteohub,2013-05-04 18:46:00,
2013-05-04 14:51:00,70.9,46.6,29.94,SE,139,5.0,10.0,42,0.00,,,0.00,487.0,meteohub,2013-05-04 18:51:00,
2013-05-04 14:56:00,70.5,45.0,29.94,South,179,3.0,11.0,40,0.00,,,0.00,584.0,meteohub,2013-05-04 18:56:00,
2013-05-04 15:01:00,70.7,47.1,29.94,South,183,3.0,11.0,43,0.00,,,0.00,561.0,meteohub,2013-05-04 19:01:00,
2013-05-04 15:07:00,70.3,46.8,29.94,SSE,159,7.0,11.0,43,0.00,,,0.00,643.0,meteohub,2013-05-04 19:07:00,
2013-05-04 15:12:00,70.3,46.2,29.94,SSW,196,2.0,11.0,42,0.00,,,0.00,504.0,meteohub,2013-05-04 19:12:00,
2013-05-04 15:17:00,70.2,46.6,29.94,South,175,5.0,11.0,43,0.00,,,0.00,425.0,meteohub,2013-05-04 19:17:00,
2013-05-04 15:22:00,70.0,47.1,29.94,SSE,147,3.0,11.0,44,0.00,,,0.00,454.0,meteohub,2013-05-04 19:22:00,
2013-05-04 15:27:00,70.3,48.0,29.93,SSE,152,3.0,7.0,45,0.00,,,0.00,733.0,meteohub,2013-05-04 19:27:00,
2013-05-04 15:32:00,70.9,47.3,29.93,SE,144,3.0,8.0,43,0.00,,,0.00,733.0,meteohub,2013-05-04 19:32:00,
2013-05-04 15:37:00,71.2,47.7,29.93,South,183,3.0,8.0,43,0.00,,,0.00,939.0,meteohub,2013-05-04 19:37:00,
2013-05-04 15:42:00,72.1,47.8,29.92,SE,146,4.0,8.0,42,0.00,,,0.00,893.0,meteohub,2013-05-04 19:42:00,
2013-05-04 15:47:00,72.9,48.4,29.92,SE,129,3.0,8.0,42,0.00,,,0.00,969.0,meteohub,2013-05-04 19:47:00,
2013-05-04 15:52:00,72.1,46.4,29.92,SE,128,4.0,6.0,40,0.00,,,0.00,424.0,meteohub,2013-05-04 19:52:00,
2013-05-04 15:57:00,71.4,49.6,29.92,SSE,166,2.0,9.0,46,0.00,,,0.00,534.0,meteohub,2013-05-04 19:57:00,
2013-05-04 16:02:00,72.0,47.7,29.92,SSE,160,5.0,9.0,42,0.00,,,0.00,390.0,meteohub,2013-05-04 20:02:00,
2013-05-04 16:07:00,71.8,46.8,29.92,South,172,5.0,7.0,41,0.00,,,0.00,348.0,meteohub,2013-05-04 20:07:00,
2013-05-04 16:12:00,71.2,46.9,29.92,SSE,151,3.0,6.0,42,0.00,,,0.00,457.0,meteohub,2013-05-04 20:12:00,
2013-05-04 16:17:00,71.2,47.7,29.91,ESE,120,5.0,6.0,43,0.00,,,0.00,325.0,meteohub,2013-05-04 20:17:00,
2013-05-04 16:22:00,71.1,45.5,29.91,NE,36,1.0,6.0,40,0.00,,,0.00,962.0,meteohub,2013-05-04 20:22:00,
2013-05-04 16:27:00,72.1,47.8,29.91,NE,54,2.0,6.0,42,0.00,,,0.00,436.0,meteohub,2013-05-04 20:27:00,
2013-05-04 16:32:00,72.0,48.9,29.91,ENE,59,1.0,6.0,44,0.00,,,0.00,241.0,meteohub,2013-05-04 20:32:00,
2013-05-04 16:37:00,71.2,48.2,29.91,ENE,78,2.0,5.0,44,0.00,,,0.00,272.0,meteohub,2013-05-04 20:37:00,
2013-05-04 16:42:00,70.9,47.8,29.91,North,11,2.0,6.0,44,0.00,,,0.00,288.0,meteohub,2013-05-04 20:42:00,
2013-05-04 16:47:00,70.9,48.6,29.91,ENE,69,1.0,6.0,45,0.00,,,0.00,315.0,meteohub,2013-05-04 20:47:00,
2013-05-04 16:52:00,70.9,50.7,29.90,WNW,301,5.0,6.0,49,0.00,,,0.00,294.0,meteohub,2013-05-04 20:52:00,
2013-05-04 16:57:00,70.0,50.5,29.91,West,278,7.0,7.0,50,0.00,,,0.00,200.0,meteohub,2013-05-04 20:57:00,
2013-05-04 17:02:00,68.7,50.4,29.91,SW,234,4.0,10.0,52,0.00,,,0.00,174.0,meteohub,2013-05-04 21:02:00,
2013-05-04 17:07:00,68.2,49.8,29.91,West,276,4.0,10.0,52,0.00,,,0.00,171.0,meteohub,2013-05-04 21:07:00,
2013-05-04 17:12:00,68.0,50.2,29.91,NW,312,4.0,9.0,53,0.00,,,0.00,160.0,meteohub,2013-05-04 21:12:00,
2013-05-04 17:18:00,67.8,50.5,29.91,WNW,290,8.0,9.0,54,0.00,,,0.00,207.0,meteohub,2013-05-04 21:18:00,
2013-05-04 17:23:00,67.6,50.4,29.91,WSW,256,6.0,9.0,54,0.00,,,0.00,123.0,meteohub,2013-05-04 21:23:00,
2013-05-04 17:28:00,67.1,50.4,29.91,West,281,8.0,12.0,55,0.00,,,0.00,135.0,meteohub,2013-05-04 21:28:00,
2013-05-04 17:33:00,66.7,50.5,29.92,NW,315,4.0,12.0,56,0.00,,,0.00,104.0,meteohub,2013-05-04 21:33:00,
2013-05-04 17:38:00,66.4,50.7,29.92,WNW,294,8.0,12.0,57,0.00,,,0.00,130.0,meteohub,2013-05-04 21:38:00,
2013-05-04 17:43:00,66.0,51.3,29.92,NW,310,6.0,13.0,59,0.00,,,0.00,160.0,meteohub,2013-05-04 21:43:00,
2013-05-04 17:48:00,65.7,51.4,29.93,West,265,6.0,13.0,60,0.00,,,0.00,125.0,meteohub,2013-05-04 21:48:00,
2013-05-04 17:54:00,65.3,51.1,29.93,WNW,292,7.0,13.0,60,0.00,,,0.00,137.0,meteohub,2013-05-04 21:54:00,
2013-05-04 17:59:00,64.8,51.4,29.92,West,276,4.0,13.0,62,0.00,,,0.00,141.0,meteohub,2013-05-04 21:59:00,
2013-05-04 18:04:00,64.4,51.6,29.92,West,278,10.0,13.0,63,0.00,,,0.00,237.0,meteohub,2013-05-04 22:04:00,
2013-05-04 18:09:00,64.0,52.0,29.93,WSW,256,8.0,13.0,65,0.00,,,0.00,169.0,meteohub,2013-05-04 22:09:00,
2013-05-04 18:14:00,63.5,52.0,29.93,West,281,5.0,16.0,66,0.00,,,0.00,151.0,meteohub,2013-05-04 22:14:00,
2013-05-04 18:19:00,63.0,51.4,29.93,WNW,295,7.0,16.0,66,0.00,,,0.00,88.0,meteohub,2013-05-04 22:19:00,
2013-05-04 18:24:00,62.4,51.3,29.93,NNW,327,5.0,13.0,67,0.00,,,0.00,54.0,meteohub,2013-05-04 22:24:00,
2013-05-04 18:29:00,61.9,51.6,29.93,WSW,255,4.0,11.0,69,0.00,,,0.00,30.0,meteohub,2013-05-04 22:29:00,
2013-05-04 18:35:00,61.3,50.7,29.94,West,259,8.0,10.0,68,0.00,,,0.00,23.0,meteohub,2013-05-04 22:35:00,
2013-05-04 18:40:00,60.8,50.5,29.94,West,281,5.0,10.0,69,0.00,,,0.00,25.0,meteohub,2013-05-04 22:40:00,
2013-05-04 18:45:00,60.3,50.4,29.94,WNW,283,9.0,10.0,70,0.00,,,0.00,54.0,meteohub,2013-05-04 22:45:00,
2013-05-04 18:50:00,59.7,50.7,29.94,WNW,294,10.0,10.0,72,0.00,,,0.00,74.0,meteohub,2013-05-04 22:50:00,
2013-05-04 18:55:00,59.5,50.9,29.95,West,281,7.0,10.0,73,0.00,,,0.00,74.0,meteohub,2013-05-04 22:55:00,
2013-05-04 19:00:00,59.5,50.9,29.95,WNW,302,5.0,10.0,73,0.00,,,0.00,56.0,meteohub,2013-05-04 23:00:00,
2013-05-04 19:05:00,59.4,51.1,29.95,West,274,2.0,10.0,74,0.00,,,0.00,40.0,meteohub,2013-05-04 23:05:00,
2013-05-04 19:10:00,59.2,50.9,29.96,South,185,3.0,12.0,74,0.00,,,0.00,28.0,meteohub,2013-05-04 23:10:00,
2013-05-04 19:15:00,59.0,50.7,29.97,West,262,3.0,12.0,74,0.00,,,0.00,44.0,meteohub,2013-05-04 23:15:00,
2013-05-04 19:20:00,58.8,50.9,29.97,West,261,7.0,12.0,75,0.00,,,0.00,40.0,meteohub,2013-05-04 23:20:00,
2013-05-04 19:25:00,58.3,51.1,29.97,West,272,0.0,13.0,77,0.00,,,0.00,28.0,meteohub,2013-05-04 23:25:00,
2013-05-04 19:31:00,57.7,51.3,29.99,SSW,205,6.0,13.0,79,0.00,,,0.00,26.0,meteohub,2013-05-04 23:31:00,
2013-05-04 19:36:00,57.0,51.3,30.00,SW,225,6.0,14.0,81,0.01,,,0.01,19.0,meteohub,2013-05-04 23:36:00,
2013-05-04 19:41:00,56.5,51.4,30.00,WNW,290,6.0,14.0,83,0.01,,,0.01,14.0,meteohub,2013-05-04 23:41:00,
2013-05-04 19:46:00,56.1,51.4,29.99,West,273,7.0,14.0,84,0.01,,,0.01,16.0,meteohub,2013-05-04 23:46:00,
2013-05-04 19:51:00,55.9,51.4,29.99,WNW,297,1.0,9.0,85,0.02,,,0.02,14.0,meteohub,2013-05-04 23:51:00,
2013-05-04 19:56:00,55.8,51.3,29.99,WNW,301,5.0,8.0,85,0.02,,,0.02,11.0,meteohub,2013-05-04 23:56:00,
2013-05-04 20:01:00,55.6,51.4,29.99,WNW,290,1.0,8.0,86,0.02,,,0.02,7.0,meteohub,2013-05-05 00:01:00,
2013-05-04 20:06:00,55.2,51.1,29.99,WNW,296,5.0,8.0,86,0.02,,,0.00,5.0,meteohub,2013-05-05 00:06:00,
2013-05-04 20:11:00,55.2,51.4,30.00,WNW,289,2.0,8.0,87,0.02,,,0.00,0.0,meteohub,2013-05-05 00:11:00,
2013-05-04 20:16:00,55.0,51.3,30.01,West,275,0.0,7.0,87,0.02,,,0.00,0.0,meteohub,2013-05-05 00:16:00,
2013-05-04 20:22:00,55.0,51.3,30.01,WSW,251,3.0,7.0,87,0.02,,,0.00,0.0,meteohub,2013-05-05 00:22:00,
2013-05-04 20:27:00,54.9,51.1,30.00,West,272,3.0,7.0,87,0.02,,,0.00,0.0,meteohub,2013-05-05 00:27:00,
2013-05-04 20:32:00,54.9,51.4,30.00,West,259,4.0,6.0,88,0.03,,,0.01,0.0,meteohub,2013-05-05 00:32:00,
2013-05-04 20:37:00,54.7,51.3,30.01,West,279,2.0,8.0,88,0.02,,,0.01,0.0,meteohub,2013-05-05 00:37:00,
2013-05-04 20:42:00,54.7,51.3,30.01,WNW,284,5.0,8.0,88,0.02,,,0.01,0.0,meteohub,2013-05-05 00:42:00,
2013-05-04 20:47:00,54.5,51.3,30.01,WNW,290,6.0,7.0,89,0.01,,,0.01,0.0,meteohub,2013-05-05 00:47:00,
2013-05-04 20:52:00,54.5,51.3,30.01,WNW,283,3.0,6.0,89,0.02,,,0.02,0.0,meteohub,2013-05-05 00:52:00,
2013-05-04 20:57:00,54.5,51.3,30.01,NW,316,2.0,6.0,89,0.02,,,0.02,0.0,meteohub,2013-05-05 00:57:00,
2013-05-04 21:02:00,54.3,51.4,30.02,West,267,3.0,6.0,90,0.02,,,0.02,0.0,meteohub,2013-05-05 01:02:00,
2013-05-04 21:07:00,54.3,51.4,30.03,West,275,1.0,6.0,90,0.02,,,0.02,0.0,meteohub,2013-05-05 01:07:00,
2013-05-04 21:12:00,54.3,51.4,30.04,SSW,205,1.0,5.0,90,0.02,,,0.02,0.0,meteohub,2013-05-05 01:12:00,
2013-05-04 21:17:00,54.3,51.8,30.03,NW,322,3.0,5.0,91,0.03,,,0.03,0.0,meteohub,2013-05-05 01:17:00,
2013-05-04 21:22:00,54.1,51.6,30.04,West,273,2.0,5.0,91,0.05,,,0.05,0.0,meteohub,2013-05-05 01:22:00,
2013-05-04 21:27:00,54.1,51.6,30.03,WNW,289,5.0,6.0,91,0.05,,,0.05,0.0,meteohub,2013-05-05 01:27:00,
2013-05-04 21:32:00,54.1,51.6,30.03,NW,316,2.0,6.0,91,0.04,,,0.05,0.0,meteohub,2013-05-05 01:32:00,
2013-05-04 21:38:00,54.1,51.8,30.03,NW,315,1.0,6.0,92,0.04,,,0.05,0.0,meteohub,2013-05-05 01:38:00,
2013-05-04 21:43:00,54.0,51.6,30.04,West,274,2.0,6.0,92,0.05,,,0.06,0.0,meteohub,2013-05-05 01:43:00,
2013-05-04 21:48:00,54.0,51.6,30.04,WNW,294,2.0,5.0,92,0.06,,,0.07,0.0,meteohub,2013-05-05 01:48:00,
2013-05-04 21:53:00,54.0,51.6,30.03,NNW,337,1.0,5.0,92,0.05,,,0.07,0.0,meteohub,2013-05-05 01:53:00,
2013-05-04 21:58:00,54.0,51.6,30.04,NW,310,2.0,4.0,92,0.06,,,0.08,0.0,meteohub,2013-05-05 01:58:00,
2013-05-04 22:03:00,54.0,51.6,30.03,WNW,286,1.0,4.0,92,0.06,,,0.08,0.0,meteohub,2013-05-05 02:03:00,
2013-05-04 22:09:00,54.0,51.6,30.03,NNW,335,1.0,4.0,92,0.07,,,0.09,0.0,meteohub,2013-05-05 02:09:00,
2013-05-04 22:14:00,54.0,51.6,30.04,NW,316,1.0,3.0,92,0.06,,,0.09,0.0,meteohub,2013-05-05 02:14:00,
2013-05-04 22:19:00,54.0,51.6,30.04,NW,319,1.0,3.0,92,0.05,,,0.09,0.0,meteohub,2013-05-05 02:19:00,
2013-05-04 22:24:00,54.0,52.0,30.04,NNW,342,1.0,3.0,93,0.05,,,0.10,0.0,meteohub,2013-05-05 02:24:00,
2013-05-04 22:29:00,53.8,51.8,30.03,NE,34,4.0,4.0,93,0.05,,,0.10,0.0,meteohub,2013-05-05 02:29:00,
2013-05-04 22:34:00,53.8,51.8,30.03,NNE,24,4.0,4.0,93,0.06,,,0.11,0.0,meteohub,2013-05-05 02:34:00,
2013-05-04 22:39:00,53.8,51.8,30.03,NNW,329,1.0,7.0,93,0.06,,,0.11,0.0,meteohub,2013-05-05 02:39:00,
2013-05-04 22:44:00,53.8,51.8,30.03,West,268,2.0,7.0,93,0.06,,,0.12,0.0,meteohub,2013-05-05 02:44:00,
2013-05-04 22:49:00,53.8,51.8,30.03,WNW,298,2.0,7.0,93,0.06,,,0.13,0.0,meteohub,2013-05-05 02:49:00,
2013-05-04 22:54:00,53.8,51.8,30.04,NW,308,1.0,6.0,93,0.05,,,0.13,0.0,meteohub,2013-05-05 02:54:00,
2013-05-04 22:59:00,53.8,51.8,30.04,WNW,299,2.0,5.0,93,0.05,,,0.13,0.0,meteohub,2013-05-05 02:59:00,
2013-05-04 23:05:00,53.8,51.8,30.04,WNW,291,3.0,3.0,93,0.06,,,0.14,0.0,meteohub,2013-05-05 03:05:00,
2013-05-04 23:10:00,53.8,51.8,30.04,West,268,2.0,3.0,93,0.05,,,0.14,0.0,meteohub,2013-05-05 03:10:00,
2013-05-04 23:15:00,53.8,51.8,30.04,West,260,1.0,4.0,93,0.05,,,0.14,0.0,meteohub,2013-05-05 03:15:00,
2013-05-04 23:20:00,53.8,51.8,30.04,NW,317,0.0,4.0,93,0.05,,,0.15,0.0,meteohub,2013-05-05 03:20:00,
2013-05-04 23:25:00,53.8,51.8,30.04,NW,323,1.0,2.0,93,0.05,,,0.15,0.0,meteohub,2013-05-05 03:25:00,
2013-05-04 23:30:00,53.8,51.8,30.04,WNW,290,0.0,2.0,93,0.05,,,0.16,0.0,meteohub,2013-05-05 03:30:00,
2013-05-04 23:35:00,53.8,51.8,30.03,NNE,13,2.0,2.0,93,0.05,,,0.17,0.0,meteohub,2013-05-05 03:35:00,
2013-05-04 23:40:00,53.6,52.0,30.03,North,357,3.0,3.0,94,0.06,,,0.18,0.0,meteohub,2013-05-05 03:40:00,
2013-05-04 23:45:00,53.6,52.0,30.03,North,7,1.0,3.0,94,0.06,,,0.19,0.0,meteohub,2013-05-05 03:45:00,
2013-05-04 23:50:00,53.6,52.0,30.03,North,8,1.0,3.0,94,0.07,,,0.20,0.0,meteohub,2013-05-05 03:50:00,
2013-05-04 23:56:00,53.6,52.0,30.02,West,277,2.0,3.0,94,0.08,,,0.21,0.0,meteohub,2013-05-05 03:56:00,